AFR35BM LFPG-LIMC

Flight info

Callsign AFR35BM
Flight time 1h 4m
Altitude 31000
Route OKASI DCT OKEKO DCT MOU DCT MADIV DCT MOKIP DCT TUFTA DCT MOBLO DCT LURAG M135 ASTIG
Aircraft A320/M-SDE2E3FGIJ1RWY/HB1

Departure

Time 2026-05-06 19:03
Airport Charles de Gaulle International Airport (LFPG)

Arrival

Time 2026-05-06 20:08
Airport Milan Malpensa International Airport (LIMC)
Time Latitude Longitude Altitude Speed Heading
2026-05-06 18:32 49.00704 2.57766 360 ft 0 kts 126°
2026-05-06 18:54 49.00708 2.57758 359 ft 4 kts 126°
2026-05-06 18:54 49.00724 2.57724 357 ft 4 kts 126°
2026-05-06 18:55 49.00737 2.57699 358 ft 4 kts 139°
2026-05-06 18:55 49.00759 2.57678 357 ft 4 kts 159°
2026-05-06 18:55 49.00784 2.57663 358 ft 4 kts 144°
2026-05-06 18:55 49.00794 2.57646 359 ft 0 kts 86°
2026-05-06 18:57 49.00796 2.57679 358 ft 6 kts 80°
2026-05-06 18:57 49.00836 2.57731 354 ft 10 kts 16°
2026-05-06 18:58 49.00896 2.57828 356 ft 18 kts 80°
2026-05-06 18:58 49.00904 2.58028 357 ft 20 kts 86°
2026-05-06 18:58 49.00914 2.58243 360 ft 21 kts 85°
2026-05-06 18:58 49.00927 2.58465 361 ft 21 kts 85°
2026-05-06 18:59 49.00938 2.58693 363 ft 21 kts 85°
2026-05-06 18:59 49.00954 2.58915 358 ft 21 kts 81°
2026-05-06 18:59 49.00987 2.59136 357 ft 22 kts 82°
2026-05-06 18:59 49.00999 2.59357 361 ft 21 kts 85°
2026-05-06 19:00 49.00972 2.59519 361 ft 15 kts 147°
2026-05-06 19:00 49.00876 2.59542 354 ft 15 kts 175°
2026-05-06 19:00 49.00734 2.59560 361 ft 23 kts 175°
2026-05-06 19:00 49.00628 2.59574 357 ft 23 kts 175°
2026-05-06 19:01 49.00424 2.59597 361 ft 20 kts 176°
2026-05-06 19:01 49.00294 2.59614 357 ft 18 kts 175°
2026-05-06 19:01 49.00178 2.59629 354 ft 16 kts 175°
2026-05-06 19:01 49.00072 2.59642 360 ft 15 kts 175°
2026-05-06 19:02 48.99961 2.59655 362 ft 17 kts 175°
2026-05-06 19:02 48.99842 2.59662 354 ft 16 kts 195°
2026-05-06 19:02 48.99798 2.59547 353 ft 0 kts 264°
2026-05-06 19:02 48.99795 2.59495 359 ft 24 kts 265°
2026-05-06 19:03 48.99759 2.58808 355 ft 100 kts 265°
2026-05-06 19:03 48.99689 2.57473 356 ft 155 kts 265°
2026-05-06 19:03 48.99598 2.55793 884 ft 157 kts 268°
2026-05-06 19:03 48.99508 2.54137 1567 ft 157 kts 269°
2026-05-06 19:04 48.99418 2.52485 2219 ft 157 kts 265°
2026-05-06 19:04 48.99329 2.50836 2869 ft 156 kts 269°
2026-05-06 19:04 48.99240 2.49181 3414 ft 162 kts 269°
2026-05-06 19:04 48.99145 2.47349 3712 ft 185 kts 269°
2026-05-06 19:05 48.99037 2.45265 3980 ft 210 kts 268°
2026-05-06 19:05 48.98910 2.42916 4356 ft 235 kts 268°
2026-05-06 19:05 48.98817 2.41212 4630 ft 251 kts 267°
2026-05-06 19:05 48.98663 2.38483 5293 ft 264 kts 267°
2026-05-06 19:06 48.98502 2.35637 6173 ft 268 kts 267°
2026-05-06 19:06 48.98317 2.32830 7043 ft 273 kts 261°
2026-05-06 19:06 48.97599 2.30140 7896 ft 280 kts 237°
2026-05-06 19:06 48.96199 2.28061 8751 ft 286 kts 212°
2026-05-06 19:07 48.94314 2.27045 9568 ft 292 kts 188°
2026-05-06 19:07 48.92268 2.26784 10259 ft 303 kts 185°
2026-05-06 19:07 48.90107 2.26548 10578 ft 324 kts 185°
2026-05-06 19:07 48.87818 2.26305 11201 ft 333 kts 185°
2026-05-06 19:08 48.85499 2.26057 11953 ft 337 kts 186°
2026-05-06 19:08 48.83145 2.25799 12710 ft 341 kts 186°
2026-05-06 19:08 48.80765 2.25529 13451 ft 344 kts 186°
2026-05-06 19:08 48.78367 2.25251 14165 ft 348 kts 186°
2026-05-06 19:09 48.75941 2.24966 14864 ft 351 kts 186°
2026-05-06 19:09 48.73501 2.24697 15533 ft 354 kts 183°
2026-05-06 19:09 48.71030 2.24958 16176 ft 359 kts 170°
2026-05-06 19:09 48.68623 2.26010 16828 ft 364 kts 158°
2026-05-06 19:10 48.66363 2.27813 17465 ft 367 kts 149°
2026-05-06 19:10 48.64180 2.29834 18097 ft 370 kts 149°
2026-05-06 19:10 48.61977 2.31862 18705 ft 372 kts 149°
2026-05-06 19:10 48.59751 2.33897 19311 ft 375 kts 149°
2026-05-06 19:11 48.57507 2.35940 19893 ft 378 kts 149°
2026-05-06 19:11 48.55247 2.37998 20475 ft 381 kts 149°
2026-05-06 19:11 48.52970 2.40068 21046 ft 383 kts 149°
2026-05-06 19:11 48.50676 2.42156 21602 ft 386 kts 149°
2026-05-06 19:12 48.48376 2.44252 22151 ft 389 kts 149°
2026-05-06 19:12 48.46054 2.46368 22682 ft 391 kts 148°
2026-05-06 19:12 48.43715 2.48497 23189 ft 394 kts 149°
2026-05-06 19:12 48.41356 2.50633 23698 ft 397 kts 148°
2026-05-06 19:13 48.38987 2.52779 24192 ft 399 kts 148°
2026-05-06 19:13 48.36614 2.54928 24669 ft 401 kts 148°
2026-05-06 19:13 48.34201 2.57109 25143 ft 403 kts 148°
2026-05-06 19:13 48.31793 2.59281 25593 ft 405 kts 148°
2026-05-06 19:14 48.29370 2.61465 26024 ft 407 kts 148°
2026-05-06 19:14 48.26919 2.63629 26444 ft 409 kts 150°
2026-05-06 19:14 48.24410 2.65672 26852 ft 411 kts 152°
2026-05-06 19:14 48.21856 2.67626 27243 ft 413 kts 153°
2026-05-06 19:15 48.19277 2.69537 27634 ft 414 kts 153°
2026-05-06 19:15 48.16685 2.71445 28011 ft 416 kts 153°
2026-05-06 19:15 48.14100 2.73365 28376 ft 418 kts 153°
2026-05-06 19:15 48.11481 2.75337 28733 ft 420 kts 153°
2026-05-06 19:16 48.08875 2.77319 29075 ft 421 kts 153°
2026-05-06 19:16 48.06231 2.79244 29306 ft 425 kts 155°
2026-05-06 19:16 48.03517 2.81055 29551 ft 429 kts 156°
2026-05-06 19:16 48.00763 2.82783 29853 ft 431 kts 157°
2026-05-06 19:17 47.97981 2.84479 30141 ft 432 kts 158°
2026-05-06 19:17 47.95188 2.86182 30407 ft 434 kts 158°
2026-05-06 19:17 47.92393 2.87906 30662 ft 436 kts 157°
2026-05-06 19:17 47.89590 2.89659 30922 ft 438 kts 157°
2026-05-06 19:18 47.86815 2.91413 31161 ft 440 kts 157°
2026-05-06 19:18 47.83994 2.93203 31387 ft 441 kts 157°
2026-05-06 19:18 47.81168 2.94997 31652 ft 442 kts 157°
2026-05-06 19:18 47.78342 2.96789 31959 ft 442 kts 157°
2026-05-06 19:19 47.75516 2.98579 32264 ft 442 kts 157°
2026-05-06 19:19 47.72690 3.00361 32563 ft 441 kts 158°
2026-05-06 19:19 47.69862 3.02143 32860 ft 441 kts 158°
2026-05-06 19:19 47.67036 3.03918 33151 ft 441 kts 158°
2026-05-06 19:20 47.64206 3.05688 33439 ft 441 kts 158°
2026-05-06 19:20 47.61383 3.07452 33729 ft 441 kts 158°
2026-05-06 19:20 47.58551 3.09222 34012 ft 441 kts 158°
2026-05-06 19:20 47.55727 3.10989 34295 ft 441 kts 158°
2026-05-06 19:21 47.52906 3.12753 34584 ft 441 kts 158°
2026-05-06 19:21 47.50076 3.14518 34815 ft 441 kts 159°
2026-05-06 19:21 47.47249 3.16278 34932 ft 439 kts 159°
2026-05-06 19:22 47.41680 3.19740 34952 ft 433 kts 159°
2026-05-06 19:22 47.36132 3.23174 34951 ft 433 kts 159°
2026-05-06 19:23 47.30576 3.26609 34952 ft 433 kts 159°
2026-05-06 19:23 47.25020 3.30034 34956 ft 433 kts 159°
2026-05-06 19:24 47.19461 3.33444 34951 ft 433 kts 159°
2026-05-06 19:24 47.13905 3.36871 34953 ft 433 kts 159°
2026-05-06 19:25 47.08344 3.40282 34954 ft 433 kts 159°
2026-05-06 19:25 47.02782 3.43674 34955 ft 433 kts 159°
2026-05-06 19:26 46.97226 3.47060 34953 ft 433 kts 159°
2026-05-06 19:26 46.91677 3.50448 34945 ft 432 kts 159°
2026-05-06 19:27 46.86122 3.53829 34945 ft 432 kts 160°
2026-05-06 19:27 46.80568 3.57187 34943 ft 432 kts 160°
2026-05-06 19:28 46.75165 3.60917 34939 ft 436 kts 148°
2026-05-06 19:28 46.72813 3.63716 34945 ft 439 kts 136°
2026-05-06 19:28 46.70884 3.67168 34936 ft 442 kts 124°
2026-05-06 19:28 46.69469 3.71153 34934 ft 446 kts 112°
2026-05-06 19:29 46.68593 3.75501 34925 ft 448 kts 105°
2026-05-06 19:29 46.67108 3.84320 34922 ft 449 kts 106°
2026-05-06 19:30 46.65592 3.93135 34921 ft 449 kts 106°
2026-05-06 19:30 46.64067 4.01961 34924 ft 450 kts 106°
2026-05-06 19:31 46.62531 4.10803 34925 ft 451 kts 107°
2026-05-06 19:31 46.60210 4.24068 34933 ft 452 kts 107°
2026-05-06 19:32 46.58651 4.32917 34937 ft 452 kts 107°
2026-05-06 19:32 46.57088 4.41767 34939 ft 452 kts 107°
2026-05-06 19:33 46.55519 4.50600 34941 ft 451 kts 108°
2026-05-06 19:33 46.53943 4.59428 34940 ft 451 kts 108°
2026-05-06 19:34 46.52330 4.68218 34938 ft 450 kts 108°
2026-05-06 19:34 46.50767 4.76975 34929 ft 449 kts 108°
2026-05-06 19:35 46.49213 4.85701 34934 ft 449 kts 108°
2026-05-06 19:35 46.47610 4.94535 34939 ft 450 kts 108°
2026-05-06 19:36 46.46014 5.03243 34946 ft 450 kts 109°
2026-05-06 19:36 46.44401 5.12006 34956 ft 450 kts 109°
2026-05-06 19:37 46.42786 5.20767 34958 ft 450 kts 109°
2026-05-06 19:37 46.41439 5.28050 34961 ft 450 kts 109°
2026-05-06 19:38 46.39544 5.38273 34958 ft 449 kts 111°
2026-05-06 19:38 46.36983 5.46347 34955 ft 437 kts 128°
2026-05-06 19:39 46.33723 5.53772 34951 ft 437 kts 127°
2026-05-06 19:39 46.30481 5.61216 34951 ft 438 kts 127°
2026-05-06 19:40 46.27235 5.68657 34951 ft 437 kts 128°
2026-05-06 19:40 46.23982 5.76063 34951 ft 437 kts 128°
2026-05-06 19:41 46.20720 5.83476 34950 ft 437 kts 128°
2026-05-06 19:41 46.17461 5.90869 34949 ft 437 kts 128°
2026-05-06 19:42 46.14215 5.98200 34950 ft 437 kts 128°
2026-05-06 19:42 46.10944 6.05575 34950 ft 436 kts 128°
2026-05-06 19:43 46.07669 6.12935 34948 ft 436 kts 128°
2026-05-06 19:43 46.04393 6.20279 34953 ft 436 kts 128°
2026-05-06 19:44 46.01111 6.27622 34957 ft 436 kts 129°
2026-05-06 19:44 45.97828 6.34951 34959 ft 436 kts 129°
2026-05-06 19:45 45.94541 6.42271 34951 ft 436 kts 129°
2026-05-06 19:45 45.91252 6.49574 34951 ft 436 kts 129°
2026-05-06 19:46 45.87949 6.56869 34953 ft 437 kts 129°
2026-05-06 19:46 45.84630 6.64179 34953 ft 436 kts 129°
2026-05-06 19:47 45.81264 6.71397 34944 ft 431 kts 136°
2026-05-06 19:47 45.77164 6.77492 34934 ft 428 kts 138°
2026-05-06 19:48 45.73423 6.84204 34755 ft 432 kts 133°
2026-05-06 19:48 45.71667 6.87688 34241 ft 430 kts 133°
2026-05-06 19:48 45.69922 6.91182 33190 ft 438 kts 133°
2026-05-06 19:49 45.68104 6.94732 32260 ft 445 kts 134°
2026-05-06 19:49 45.66247 6.98273 31442 ft 447 kts 135°
2026-05-06 19:49 45.64355 7.01802 31120 ft 449 kts 135°
2026-05-06 19:49 45.62438 7.05334 30866 ft 450 kts 135°
2026-05-06 19:50 45.60511 7.08866 30612 ft 451 kts 135°
2026-05-06 19:50 45.58589 7.12388 30367 ft 451 kts 136°
2026-05-06 19:50 45.56660 7.15933 30119 ft 451 kts 135°
2026-05-06 19:50 45.54744 7.19470 29852 ft 449 kts 135°
2026-05-06 19:51 45.53083 7.23285 29215 ft 460 kts 121°
2026-05-06 19:51 45.52133 7.27697 28298 ft 475 kts 107°
2026-05-06 19:51 45.51550 7.32368 27705 ft 481 kts 106°
2026-05-06 19:51 45.51000 7.37078 27154 ft 485 kts 105°
2026-05-06 19:52 45.50458 7.41842 26527 ft 487 kts 105°
2026-05-06 19:52 45.50102 7.44991 26107 ft 485 kts 104°
2026-05-06 19:52 45.49561 7.49738 25483 ft 487 kts 104°
2026-05-06 19:52 45.49005 7.54505 24845 ft 488 kts 104°
2026-05-06 19:53 45.48441 7.59261 24227 ft 484 kts 104°
2026-05-06 19:53 45.47878 7.63950 23577 ft 478 kts 104°
2026-05-06 19:53 45.47314 7.68595 22822 ft 473 kts 104°
2026-05-06 19:53 45.46753 7.73180 22073 ft 469 kts 104°
2026-05-06 19:54 45.46189 7.77768 21325 ft 470 kts 104°
2026-05-06 19:54 45.45628 7.82342 20760 ft 467 kts 104°
2026-05-06 19:54 45.45072 7.86879 20259 ft 464 kts 103°
2026-05-06 19:54 45.44520 7.91379 19749 ft 452 kts 103°
2026-05-06 19:55 45.43999 7.95640 19254 ft 425 kts 103°
2026-05-06 19:55 45.43506 7.99678 18745 ft 402 kts 104°
2026-05-06 19:55 45.43032 8.03508 18240 ft 383 kts 104°
2026-05-06 19:55 45.42578 8.07171 17667 ft 369 kts 104°
2026-05-06 19:56 45.42135 8.10710 17094 ft 357 kts 104°
2026-05-06 19:56 45.41702 8.14133 16517 ft 347 kts 104°
2026-05-06 19:56 45.41280 8.17458 15943 ft 338 kts 104°
2026-05-06 19:56 45.40866 8.20714 15364 ft 330 kts 104°
2026-05-06 19:57 45.40467 8.23873 14791 ft 323 kts 104°
2026-05-06 19:57 45.40071 8.27004 14214 ft 317 kts 104°
2026-05-06 19:57 45.39681 8.30069 13637 ft 312 kts 104°
2026-05-06 19:57 45.39296 8.33076 13061 ft 307 kts 104°
2026-05-06 19:58 45.38918 8.36038 12485 ft 302 kts 103°
2026-05-06 19:58 45.38474 8.38922 11908 ft 294 kts 115°
2026-05-06 19:58 45.37582 8.41486 11327 ft 286 kts 122°
2026-05-06 19:58 45.36595 8.43917 10756 ft 282 kts 123°
2026-05-06 19:59 45.35614 8.46275 10216 ft 278 kts 123°
2026-05-06 19:59 45.34623 8.48634 9708 ft 271 kts 123°
2026-05-06 19:59 45.33661 8.50912 9206 ft 266 kts 123°
2026-05-06 19:59 45.32714 8.53133 8731 ft 259 kts 123°
2026-05-06 20:00 45.31804 8.55247 8363 ft 249 kts 123°
2026-05-06 20:00 45.30906 8.57338 7987 ft 240 kts 123°
2026-05-06 20:00 45.30257 8.59478 7607 ft 235 kts 102°
2026-05-06 20:00 45.30297 8.61756 7263 ft 233 kts 76°
2026-05-06 20:01 45.30978 8.63905 6939 ft 242 kts 63°
2026-05-06 20:01 45.31770 8.66029 6567 ft 243 kts 63°
2026-05-06 20:01 45.32566 8.68160 6179 ft 247 kts 63°
2026-05-06 20:01 45.33364 8.70319 5766 ft 247 kts 63°
2026-05-06 20:02 45.34162 8.72487 5396 ft 248 kts 63°
2026-05-06 20:02 45.34962 8.74644 5072 ft 244 kts 63°
2026-05-06 20:02 45.35782 8.76733 4800 ft 240 kts 55°
2026-05-06 20:02 45.36939 8.78383 4619 ft 234 kts 34°
2026-05-06 20:03 45.38403 8.79375 4500 ft 234 kts 14°
2026-05-06 20:03 45.40006 8.79622 4391 ft 232 kts 354°
2026-05-06 20:03 45.41563 8.79257 4311 ft 221 kts 348°
2026-05-06 20:03 45.43033 8.78851 4256 ft 208 kts 347°
2026-05-06 20:04 45.44427 8.78468 4094 ft 202 kts 347°
2026-05-06 20:04 45.45774 8.78097 3830 ft 198 kts 347°
2026-05-06 20:04 45.47144 8.77722 3564 ft 198 kts 347°
2026-05-06 20:04 45.48486 8.77353 3304 ft 196 kts 348°
2026-05-06 20:05 45.49818 8.76986 3045 ft 195 kts 348°
2026-05-06 20:05 45.51116 8.76629 2782 ft 184 kts 348°
2026-05-06 20:05 45.52338 8.76294 2534 ft 172 kts 349°
2026-05-06 20:05 45.53436 8.75988 2360 ft 156 kts 349°
2026-05-06 20:06 45.54483 8.75697 2121 ft 147 kts 350°
2026-05-06 20:06 45.55459 8.75430 1919 ft 143 kts 350°
2026-05-06 20:06 45.56430 8.75168 1748 ft 141 kts 349°
2026-05-06 20:06 45.57384 8.74908 1573 ft 139 kts 349°
2026-05-06 20:07 45.58343 8.74645 1392 ft 138 kts 349°
2026-05-06 20:07 45.59270 8.74390 1211 ft 137 kts 349°
2026-05-06 20:07 45.60205 8.74129 1023 ft 136 kts 349°
2026-05-06 20:07 45.61133 8.73872 852 ft 135 kts 349°
2026-05-06 20:08 45.62022 8.73622 740 ft 128 kts 351°
2026-05-06 20:08 45.62758 8.73421 740 ft 78 kts 348°
2026-05-06 20:08 45.63068 8.73312 737 ft 36 kts 336°
2026-05-06 20:08 45.63230 8.73125 740 ft 26 kts 310°
2026-05-06 20:09 45.63325 8.72930 741 ft 21 kts 303°
2026-05-06 20:09 45.63394 8.72773 741 ft 16 kts 293°
2026-05-06 20:09 45.63401 8.72607 740 ft 18 kts 262°
2026-05-06 20:09 45.63377 8.72419 741 ft 20 kts 258°
2026-05-06 20:10 45.63352 8.72236 741 ft 18 kts 260°
2026-05-06 20:10 45.63334 8.72098 740 ft 9 kts 259°
2026-05-06 20:10 45.63328 8.72057 741 ft 4 kts 258°
2026-05-06 20:10 45.63323 8.72018 741 ft 6 kts 258°
2026-05-06 20:11 45.63308 8.71910 741 ft 15 kts 259°
2026-05-06 20:11 45.63288 8.71763 741 ft 16 kts 259°
2026-05-06 20:11 45.63223 8.71670 741 ft 15 kts 173°
2026-05-06 20:11 45.63117 8.71700 741 ft 16 kts 168°
2026-05-06 20:12 45.63010 8.71730 741 ft 16 kts 169°
2026-05-06 20:12 45.62900 8.71760 741 ft 16 kts 167°
2026-05-06 20:12 45.62793 8.71790 739 ft 15 kts 169°
2026-05-06 20:12 45.62688 8.71820 740 ft 15 kts 168°
2026-05-06 20:13 45.62593 8.71847 741 ft 13 kts 169°
2026-05-06 20:13 45.62513 8.71869 741 ft 11 kts 169°
2026-05-06 20:13 45.62443 8.71888 740 ft 10 kts 169°